Weather in Merenga

Russia / Magadan District     61°53′30″N   156°07′56″E
temp.,
°C
wind,
m/s
gust,
m/s
humid.,
%
clouds,
%
prec.,
mm/h
press.,
hPa
HPBL,
m
12 august, fri
fri1223:00+9sse3498100 2.1 1006200
02:00+9s239877 0.1 1006173
05:00+9sse2398100 0.1 1006173
08:00+11s229073 0.0 1006302
11:00+14sw117381 0.0 1006563
14:00+17ssw226082 0.3 10051090
17:00+17e116198 1.9 1006863
20:00+14sse227910 1.1 100823
13 august, sat
sat1323:00+10sse229377 1.1 101012
02:00+8sse1194100 0.0 101110
05:00+8ssw1196100 0.0 101210
08:00+12s118332 0.0 1012223
11:00+17ssw11621 0.0 1011811
14:00+20ssw325028 0.0 10091407
17:00+19s545420 0.0 1009808
20:00+14sse337116 0.0 101032
14 august, sun
sun1423:00+11sse2282100 0.0 101111
02:00+10sse2281100 0.0 101110
05:00+9sse2282100 0.0 101210
08:00+14s2366100 0.0 1012284
11:00+17s3453100 0.0 1012841
14:00+17s445299 0.0 1011967
17:00+17sse445667 0.0 1011852
20:00+13sse3376100 0.0 101243
15 august, mon
mon1523:00+10sse22926 0.0 101319
02:00+9sse229633 0.0 101315
05:00+10s119592 0.0 101249
08:00+12s1191100 0.0 1012267
11:00+14ssw227395 0.1 1011821
14:00+15s226797 0.1 1010914
17:00+17ssw225620 0.1 10091172
20:00+13s2275100 0.0 100811
16 august, tue
tue1623:00+11sse1188100 0.0 100810
02:00+11nne1189100 0.0 100610
05:00+11nne2282100 0.0 100431
08:00+12nne2382100 0.2 1001150
11:00+11nne4693100 3.6 998382
14:00+12nne4692100 4.0 996341
17:00+11nne2493100 6.6 994156
20:00+10n2294100 1.1 99365